Regional Weather Roundup
Issued by NWS Spokane, WA

Home | Current Version | Previous Version | Text Only | Print | Product List | Glossary On
Versions: 1 2 3 4 5 6 7 8 9 10 11 12 13 14 15 16 17 18 19 20 21 22 23 24 25 26 27 28 29 30 31 32 33 34 35 36 37 38 39 40 41 42 43 44 45 46 47 48 49 50
000
NZUS01 KOTX 041610
RWROTX
EASTERN WASHINGTON/NORTHERN IDAHO ROUNDUP
NATIONAL WEATHER SERVICE, SPOKANE WA
900 AM PDT SAT JUL 04 2015

Note: "fair" indicated few or no clouds below 12,000 feet with no
significant weather and/or obstructions to visibility.

...NORTHEAST WASHINGTON AND NORTHERN IDAHO PANHANDLE...

CITY           SKY/WX    TMP DP  RH WIND       PRES   REMARKS
SPOKANE INTL   MOSUNNY   76  48  37 S9        29.84S
SPOKANE DOWNTO SUNNY     82  49  31 E3        29.83S
COEUR D ALENE  SUNNY     79  52  38 S7        29.84S
DEER PARK      SUNNY     77  48  35 CALM      29.84S
SANDPOINT      SUNNY     79  50  36 CALM      29.83S
BONNERS FERRY  FAIR      73  54  49 S3        29.84S

...SOUTHEAST WASHINGTON AND SOUTHERN IDAHO PANHANDLE...

CITY           SKY/WX    TMP DP  RH WIND       PRES   REMARKS
WALLA WALLA    SUNNY     88  45  22 SW13      29.81F
PULLMAN/MOSCOW SUNNY     78  49  35 S5        29.89S
LEWISTON       MOSUNNY   81  51  35 NE3       29.81F
LOWELL           N/A     73  53  49 CALM      29.87F

...COLUMBIA BASIN...

CITY           SKY/WX    TMP DP  RH WIND       PRES   REMARKS
EPHRATA        SUNNY     92  42  17 NE15      29.76F
MOSES LAKE     SUNNY     87  48  25 NE7       29.78S
TRI CITIES     SUNNY     87  53  31 SW7       29.76S
HERMISTON      SUNNY     85  49  28 W8        29.78F
PENDLETON      SUNNY     84  43  23 S7        29.83F

...EAST SLOPES CASCADES...

CITY           SKY/WX    TMP DP  RH WIND       PRES   REMARKS
THE DALLES     SUNNY     81  54  39 NW13      29.78F
YAKIMA         SUNNY     88  48  25 NW6       29.80F
ELLENSBURG     SUNNY     85  46  25 NW15      29.82F
WENATCHEE      SUNNY     87  43  21 NW14      29.80S
OMAK           SUNNY     86  45  23 N16       29.81S

...SOUTHERN BRITISH COLUMBIA...

CITY           SKY/WX    TMP DP  RH WIND       PRES   REMARKS
PENTICTON      MOSUNNY   81  52  36 N9        29.85F
CASTLEGAR      SUNNY     75  50  41 VRB2      29.83F
CRANBROOK      SUNNY     79  46  31 NE12      29.86F

...WESTERN MONTANA...

CITY           SKY/WX    TMP DP  RH WIND       PRES   REMARKS
MISSOULA       SUNNY     74  45  35 S5        29.92F

...NEIGHBORING CITIES...

CITY           SKY/WX    TMP DP  RH WIND       PRES   REMARKS
SEATTLE        MOSUNNY   67  55  65 CALM      29.90F
CALGARY        PTSUNNY   66  46  48 VRB6      29.97F



USA.gov is the U.S. government's official web portal to all federal, state and local government web resources and services.